Wind_Speed
16 15 14 14 13 13 12 12 12 12 12 12 13 13 13 13 13 14 14 14 15 15 16 16 17 17 17 17 18 17 17 18 18 18 18 18 19 19 19 19 19 19 19
16 15 15 14 13 13 12 12 12 13 13 13 13 14 14 14 14 15 15 16 16 17 17 17 18 18 18 18 18 18 19 19 19 19 19 19 20 20 20 20 20 20 20
17 16 16 15 14 13 13 13 13 13 14 14 14 15 15 15 15 16 16 16 16 17 17 17 17 17 18 18 18 19 19 19 19 20 20 20 20 20 21 21 21 21 20
19 18 17 15 15 14 14 14 14 14 14 15 15 15 14 15 15 15 16 16 17 17 17 17 17 18 18 19 19 19 19 19 20 20 20 21 21 21 21 21 21 21 21
21 19 18 17 16 15 15 15 14 14 14 14 14 14 15 15 16 16 17 17 17 17 17 17 17 18 18 19 19 19 19 20 20 20 20 21 21 21 21 21 21 21 21
22 21 20 18 17 16 15 15 15 15 15 15 15 15 16 16 16 17 17 17 17 17 18 18 18 19 19 19 19 19 19 20 20 20 20 21 21 21 21 21 21 21 21
24 22 21 20 19 18 17 16 16 16 16 16 16 16 17 17 17 18 18 18 18 17 18 18 18 18 18 19 19 19 20 20 20 20 20 20 21 21 21 21 22 22 21
25 24 23 22 21 19 18 18 18 17 17 18 18 18 18 18 18 18 18 18 17 17 17 17 17 17 17 18 18 19 19 19 19 19 20 20 20 21 21 21 22 22 22
27 27 25 24 23 22 20 19 19 19 19 19 19 19 18 18 18 18 18 17 17 17 17 17 17 16 17 17 17 18 18 19 19 19 19 20 20 21 21 22 22 22 23
29 29 28 26 25 24 23 21 20 20 20 20 20 19 19 18 18 18 18 17 17 16 16 16 16 16 16 17 17 18 18 18 18 18 19 20 20 21 21 21 21 22 22
31 30 29 28 27 26 24 23 22 21 21 21 20 20 19 19 18 18 18 17 17 16 16 16 16 16 16 17 17 17 17 17 17 18 18 19 19 20 20 21 21 22 22
33 32 31 30 29 27 26 25 24 23 22 22 21 20 20 19 19 18 18 18 17 16 16 16 16 16 16 17 17 17 17 17 17 18 18 19 19 20 20 21 22 22 23
35 33 32 31 30 29 27 27 26 25 24 23 22 21 21 20 20 19 19 18 17 17 17 17 17 17 17 17 18 18 18 18 18 18 19 19 20 20 21 21 22 23 23
36 35 33 32 31 30 29 28 27 26 25 24 23 22 22 21 21 20 20 19 19 19 19 19 19 19 19 19 19 19 19 19 19 19 20 20 21 22 22 23 23 24 24
37 36 35 33 32 31 30 29 28 28 27 26 25 24 23 23 22 22 22 21 21 21 21 21 21 21 21 21 21 21 21 21 20 21 22 22 23 23 24 24 25 25 25
38 36 35 34 33 32 31 31 30 29 28 27 26 25 25 24 24 24 24 23 23 23 23 23 23 23 24 24 24 24 24 24 23 23 24 24 25 25 25 26 26 26 26
38 37 36 35 34 33 33 32 31 31 30 29 28 27 27 26 26 26 26 26 26 26 26 26 26 26 27 27 27 27 27 27 27 26 26 27 27 27 27 27 28 28 28
39 38 37 36 35 35 34 33 33 32 31 30 29 29 29 29 29 28 28 29 29 29 29 29 29 29 30 30 30 30 30 30 30 30 29 29 30 30 30 30 30 30 30
40 38 38 37 36 36 36 35 34 33 32 31 31 31 31 31 31 31 31 31 32 32 32 32 32 33 33 33 33 33 33 34 34 33 33 33 32 32 33 33 33 33 33
41 39 39 38 38 37 37 35 34 34 34 33 33 33 33 34 34 34 34 34 35 35 35 35 36 36 37 37 37 37 37 37 37 36 36 36 36 36 35 35 36 36 36
41 40 39 39 39 38 37 36 35 35 36 35 35 35 35 36 37 37 37 37 37 37 38 38 39 39 40 40 41 41 41 40 40 40 40 40 39 39 39 38 39 39 39
41 41 40 39 39 38 38 37 37 37 37 37 37 37 38 38 39 39 39 39 40 40 41 41 41 42 43 43 44 45 44 44 43 43 43 43 43 43 43 42 42 42 41
42 41 40 40 40 39 38 38 38 38 38 38 38 39 40 41 41 41 41 42 42 43 43 43 44 45 46 46 47 48 48 47 47 47 47 47 47 46 45 45 45 44 44
42 41 41 40 40 40 39 39 39 39 39 40 41 41 41 42 42 43 43 44 44 45 45 46 47 47 48 49 50 50 51 52 51 50 50 50 49 49 48 48 48 47 47
42 41 41 40 40 40 40 40 40 41 41 41 42 42 43 43 44 44 45 45 46 47 47 48 48 49 50 51 52 53 54 55 54 54 53 53 52 52 51 50 50 50 50
42 41 41 41 41 41 41 41 41 41 42 42 43 43 44 44 45 46 47 47 47 48 49 49 50 51 52 53 54 54 55 56 56 57 57 56 56 54 54 53 53 53 53
Wind_Direction
234 238 241 244 247 251 254 257 260 262 265 269 274 277 281 284 288 291 294 297 299 301 304 305 305 305 304 304 303 301 300 299 299 299 299 299 300 301 302 302 302 301 300
234 238 242 245 248 251 255 259 262 264 267 270 274 278 282 285 289 292 295 298 300 301 303 304 304 305 305 304 303 302 301 300 299 299 299 299 300 301 302 302 301 300 299
236 240 243 246 248 252 257 260 263 265 269 273 276 279 282 286 290 293 296 298 300 302 303 304 304 304 304 303 303 303 303 302 301 301 301 300 300 300 301 301 301 300 298
238 241 245 247 250 253 257 261 264 266 270 273 276 279 283 287 290 294 297 300 301 303 304 305 305 304 304 303 303 303 303 302 302 302 301 300 299 299 300 300 300 300 298
238 242 245 247 250 252 256 261 264 267 270 273 276 281 284 288 292 295 297 300 302 303 304 305 305 305 304 304 303 303 303 303 302 302 301 300 299 299 300 301 300 300 300
239 242 245 247 249 251 254 259 261 265 269 273 277 281 284 288 292 295 297 300 302 303 304 305 305 305 304 304 303 303 304 303 303 303 302 302 302 302 303 303 302 302 300
239 243 245 247 248 249 252 255 259 264 269 274 277 281 284 288 291 294 297 299 302 304 305 306 307 307 306 305 305 305 305 305 305 305 304 304 304 304 304 304 303 302 301
238 242 244 246 247 247 249 252 257 262 268 273 277 281 285 288 291 294 296 298 301 303 305 307 308 308 308 308 307 307 307 307 307 306 305 305 305 305 305 305 304 302 301
237 240 242 244 246 247 249 252 256 262 268 273 278 282 285 288 291 293 295 297 300 302 304 306 307 308 308 309 309 309 308 308 307 306 305 305 305 305 305 305 304 303 302
236 239 242 244 246 248 251 254 257 263 268 274 278 281 284 287 289 292 294 296 298 300 302 304 305 306 308 309 309 309 309 309 310 309 308 307 306 306 306 306 305 304 303
235 238 241 244 247 249 253 257 260 264 269 274 277 280 282 284 287 289 291 293 294 297 299 302 303 305 305 307 308 308 308 309 309 309 309 309 308 308 308 307 306 305 304
234 237 240 244 247 251 255 259 263 267 270 273 276 278 280 283 284 286 288 289 291 293 295 297 299 301 303 304 305 306 307 308 309 309 309 308 308 308 308 308 307 306 305
234 237 240 243 247 252 256 260 264 268 270 273 275 277 279 281 282 283 284 286 288 289 291 293 295 297 299 301 302 303 304 305 306 306 307 307 307 307 307 307 307 306 305
234 236 239 243 248 252 257 261 265 268 270 273 275 277 278 279 280 281 281 283 284 286 287 290 292 294 295 296 297 299 300 302 302 303 304 305 305 306 305 305 305 305 304
233 236 240 244 248 253 257 261 265 267 270 273 275 277 278 279 279 280 280 281 283 283 285 287 289 291 292 293 293 294 295 297 299 300 301 301 302 303 303 303 304 303 302
233 236 240 245 249 254 258 261 264 267 270 273 274 275 277 278 279 280 280 280 281 282 283 285 287 289 290 290 291 291 292 293 294 295 297 298 299 299 300 300 300 301 300
234 237 241 246 250 254 257 260 264 267 269 271 273 275 276 277 278 279 280 280 281 282 283 284 285 286 287 288 288 289 289 290 291 292 293 294 295 296 296 296 297 297 297
236 239 243 247 250 254 257 260 263 266 268 270 272 274 276 276 277 278 279 280 280 282 283 283 284 284 285 286 286 287 287 288 289 289 290 291 292 292 293 294 294 294 294
237 240 243 247 250 253 257 259 262 265 268 270 272 273 275 276 277 279 279 280 281 281 282 282 282 282 283 284 284 285 286 286 286 288 288 288 289 289 290 291 291 292 292
239 242 244 247 250 253 256 259 262 265 267 269 271 273 275 276 277 279 279 280 281 281 281 281 281 281 282 283 283 283 284 284 285 286 287 287 287 287 288 288 289 290 289
240 242 245 248 250 253 256 258 261 264 266 269 271 274 276 277 277 278 279 280 280 280 280 280 281 281 282 282 282 282 282 283 284 285 285 285 286 286 286 286 287 287 288
241 243 245 247 249 252 255 258 260 263 266 269 272 274 275 276 277 278 278 279 280 280 280 281 281 281 281 282 282 282 282 282 283 283 283 284 284 284 285 285 285 286 287
241 244 246 248 250 252 254 257 260 263 266 269 272 273 274 276 277 278 278 279 279 280 280 281 281 281 281 281 282 282 282 282 281 281 282 283 283 282 283 284 284 284 285
242 244 246 248 250 252 255 257 260 263 266 269 270 272 274 276 277 278 278 279 280 280 280 281 281 281 281 281 281 281 281 281 281 281 281 282 282 282 282 282 283 284 284
242 244 246 247 250 253 255 258 261 264 266 268 270 272 274 275 276 277 278 279 279 280 280 281 281 280 281 281 281 281 281 281 281 281 281 281 281 281 281 282 282 283 283
243 245 246 248 250 253 256 259 261 264 266 268 270 272 273 274 276 277 278 279 279 280 280 280 280 281 281 281 281 281 281 281 282 281 280 280 280 280 281 280 281 281 282
Height
5872 5873 5875 5876 5877 5879 5880 5881 5882 5883 5884 5884 5885 5885 5886 5886 5886 5887 5887 5886 5886 5886 5886 5886 5885 5885 5885 5884 5884 5883 5883 5882 5881 5881 5880 5879 5879 5878 5877 5877 5876 5875 5874
5870 5871 5873 5874 5876 5877 5878 5879 5880 5881 5882 5882 5883 5884 5884 5884 5884 5885 5885 5885 5885 5885 5884 5884 5883 5883 5882 5882 5881 5881 5880 5880 5879 5878 5878 5877 5876 5876 5875 5874 5873 5872 5872
5868 5869 5871 5872 5874 5875 5876 5877 5878 5879 5880 5880 5881 5882 5882 5882 5882 5882 5883 5883 5883 5883 5882 5882 5881 5881 5880 5880 5879 5878 5878 5877 5877 5876 5875 5875 5874 5873 5872 5871 5870 5869 5868
5865 5867 5869 5870 5872 5873 5874 5875 5876 5877 5878 5878 5879 5879 5880 5880 5880 5880 5880 5880 5880 5880 5880 5880 5879 5879 5878 5877 5877 5876 5875 5875 5874 5873 5872 5872 5871 5870 5869 5868 5867 5866 5865
5862 5864 5866 5868 5869 5871 5872 5873 5874 5874 5875 5876 5877 5877 5878 5878 5878 5878 5878 5878 5878 5878 5878 5877 5877 5876 5875 5875 5874 5873 5872 5872 5871 5870 5870 5869 5868 5867 5866 5865 5864 5863 5862
5860 5862 5863 5865 5867 5868 5869 5870 5871 5872 5873 5874 5874 5875 5875 5876 5876 5876 5876 5876 5876 5875 5875 5874 5874 5873 5873 5872 5871 5870 5869 5869 5868 5867 5866 5865 5864 5863 5862 5861 5860 5860 5859
5856 5858 5860 5862 5864 5865 5867 5868 5869 5870 5871 5871 5872 5873 5873 5873 5873 5873 5873 5873 5873 5873 5872 5872 5871 5870 5870 5869 5868 5867 5866 5866 5865 5864 5863 5862 5861 5860 5859 5858 5857 5856 5856
5853 5855 5857 5859 5860 5862 5864 5865 5866 5867 5868 5869 5869 5870 5870 5870 5871 5871 5870 5870 5870 5870 5869 5869 5868 5867 5867 5866 5865 5864 5863 5862 5861 5860 5860 5859 5858 5857 5856 5855 5854 5853 5852
5849 5851 5853 5855 5857 5859 5860 5862 5863 5864 5865 5866 5866 5867 5867 5867 5867 5868 5868 5867 5867 5867 5866 5866 5865 5865 5864 5863 5862 5861 5860 5859 5859 5858 5856 5855 5854 5854 5853 5851 5850 5849 5849
5844 5846 5849 5851 5853 5855 5857 5859 5860 5861 5862 5863 5863 5864 5864 5864 5864 5864 5864 5864 5864 5864 5863 5863 5862 5862 5861 5860 5859 5859 5858 5857 5856 5855 5853 5852 5851 5850 5849 5848 5847 5846 5845
5840 5842 5844 5847 5849 5851 5853 5855 5856 5858 5859 5859 5860 5860 5861 5861 5861 5861 5861 5861 5861 5861 5861 5860 5860 5859 5858 5857 5857 5856 5855 5854 5853 5852 5851 5849 5848 5847 5846 5845 5844 5842 5841
5835 5838 5840 5843 5845 5847 5849 5851 5852 5854 5855 5856 5856 5857 5857 5858 5858 5858 5858 5858 5858 5858 5857 5857 5856 5856 5855 5854 5853 5852 5852 5851 5850 5849 5847 5846 5845 5844 5842 5841 5840 5839 5837
5829 5833 5836 5838 5840 5843 5845 5846 5848 5849 5851 5851 5852 5853 5854 5854 5854 5854 5855 5855 5854 5854 5854 5854 5853 5852 5852 5851 5850 5849 5848 5848 5847 5845 5844 5843 5842 5840 5839 5837 5836 5835 5833
5824 5828 5831 5833 5836 5838 5840 5842 5843 5845 5846 5847 5848 5849 5850 5850 5850 5851 5851 5851 5851 5850 5850 5850 5849 5849 5848 5847 5846 5845 5845 5844 5843 5842 5840 5839 5838 5836 5835 5833 5832 5830 5829
5819 5823 5826 5828 5831 5833 5835 5837 5838 5840 5841 5842 5843 5844 5845 5846 5846 5846 5846 5846 5846 5846 5846 5845 5845 5844 5844 5843 5842 5841 5840 5839 5839 5838 5836 5835 5833 5832 5830 5829 5827 5826 5824
5814 5817 5820 5823 5825 5828 5830 5831 5833 5835 5836 5837 5838 5839 5840 5840 5841 5841 5841 5841 5841 5841 5841 5841 5840 5839 5839 5838 5837 5836 5835 5834 5834 5833 5831 5830 5828 5827 5825 5824 5822 5820 5819
5808 5812 5815 5818 5820 5822 5824 5826 5828 5829 5831 5832 5833 5834 5834 5835 5835 5836 5836 5836 5836 5836 5836 5835 5835 5834 5833 5832 5832 5831 5830 5829 5828 5827 5826 5824 5823 5821 5820 5818 5816 5815 5813
5802 5806 5809 5812 5814 5816 5818 5820 5822 5823 5825 5826 5827 5828 5828 5829 5829 5830 5830 5830 5830 5830 5830 5829 5828 5828 5827 5826 5825 5824 5823 5822 5821 5820 5820 5818 5817 5815 5813 5812 5810 5808 5807
5796 5800 5803 5806 5808 5810 5812 5814 5816 5817 5819 5820 5821 5822 5822 5822 5823 5823 5824 5824 5823 5823 5823 5822 5822 5821 5820 5819 5818 5817 5816 5815 5814 5813 5812 5811 5810 5808 5806 5805 5803 5801 5799
5790 5793 5796 5799 5802 5804 5806 5808 5810 5811 5813 5813 5814 5815 5815 5816 5816 5816 5817 5816 5816 5816 5816 5815 5814 5813 5813 5811 5810 5810 5808 5807 5806 5805 5804 5802 5801 5800 5799 5797 5795 5793 5791
5783 5786 5790 5793 5795 5797 5799 5801 5803 5804 5805 5807 5807 5808 5808 5809 5809 5809 5809 5809 5808 5808 5807 5807 5806 5805 5804 5803 5802 5801 5800 5799 5798 5796 5794 5793 5792 5790 5789 5788 5786 5784 5782
5776 5780 5783 5785 5788 5790 5792 5794 5796 5797 5798 5799 5800 5801 5801 5801 5801 5801 5801 5800 5800 5799 5799 5798 5797 5796 5795 5793 5792 5790 5790 5790 5789 5786 5785 5783 5782 5780 5779 5778 5776 5775 5773
5769 5773 5776 5778 5781 5783 5785 5787 5788 5790 5791 5792 5793 5793 5793 5792 5792 5792 5792 5791 5791 5790 5789 5788 5787 5786 5785 5783 5782 5780 5779 5779 5777 5776 5774 5772 5771 5770 5768 5766 5765 5764 5763
5761 5765 5768 5771 5773 5775 5777 5779 5781 5782 5784 5784 5784 5785 5784 5784 5783 5783 5783 5782 5781 5780 5780 5778 5777 5776 5774 5773 5771 5769 5768 5766 5765 5764 5763 5761 5759 5758 5756 5754 5753 5752 5750
5753 5757 5760 5763 5766 5767 5769 5771 5773 5774 5775 5776 5776 5776 5776 5775 5775 5774 5773 5772 5771 5770 5769 5768 5766 5765 5763 5761 5760 5758 5755 5753 5751 5750 5749 5749 5747 5745 5744 5742 5740 5739 5737
5745 5749 5752 5755 5757 5759 5761 5763 5764 5766 5766 5767 5767 5767 5766 5766 5765 5764 5763 5762 5761 5760 5758 5757 5755 5753 5751 5749 5748 5746 5743 5741 5739 5736 5735 5734 5733 5732 5730 5729 5728 5726 5724